DW5599 Weather Reports


Display with metric or nautical units.
time (UTC)temp
F
wind
direction
speed
MPH
gust
MPH
rain 1hr
in
rain 24hr
in
rain mn
in
humidity
%
barometer
mb
20181214031518 70 220 3.0 14.0 0.46 1.10 0.09 95 997.0
20181214030028 70 169 5.0 16.0 0.94 1.03 0.02 95 995.9
20181214023014 69 122 2.0 23.0 0.94 0.96 0.96 95 996.5
20181214021513 68 119 2.0 14.0 0.56 0.56 0.56 92 1000.4
20181214020002 70 190 7.0 21.0 0.09 0.09 0.09 90 998.4
20181214011503 72 85 5.0 11.0 0.00 0.00 0.00 88 999.1
20181214004501 71 69 9.0 17.0 0.00 0.00 0.00 87 999.2
20181214001751 71 103 8.0 19.0 0.00 0.00 0.00 86 998.8
20181213233045 72 57 5.0 15.0 0.00 0.00 0.00 84 999.8
20181213231521 72 77 6.0 18.0 0.00 0.00 0.00 84 999.8
20181213224517 73 211 9.0 19.0 0.00 0.00 0.00 83 999.4
20181213223008 73 36 4.0 17.0 0.00 0.00 0.00 83 999.2
20181213221517 73 59 6.0 16.0 0.00 0.00 0.00 82 999.2
20181213214514 74 142 6.0 14.0 0.00 0.00 0.00 81 999.0
20181213213035 74 111 5.0 19.0 0.00 0.00 0.00 81 999.2
20181213211657 75 122 6.0 19.0 0.00 0.00 0.00 80 999.1
20181213201523 76 123 6.0 15.0 0.00 0.00 0.00 78 999.6
20181213194715 79 73 7.0 15.0 0.00 0.00 0.00 77 1000.0
20181213193004 82 107 6.0 15.0 0.00 0.00 0.00 76 1000.2
20181213191547 83 89 6.0 15.0 0.00 0.00 0.00 75 1000.3
20181213184505 88 348 4.0 10.0 0.00 0.00 0.00 63 1000.7
20181213181750 86 77 2.0 6.0 0.00 0.00 0.00 67 1000.9
20181213174514 87 40 2.0 11.0 0.00 0.00 0.00 64 1001.5
20181213173109 87 5 3.0 7.0 0.00 0.00 0.00 65 1001.6
20181213171523 86 39 3.0 10.0 0.00 0.00 0.00 66 1001.6
20181213164500 85 46 2.0 7.0 0.00 0.00 0.00 69 1001.9
20181213163012 82 61 2.0 6.0 0.00 0.00 0.00 74 1002.0
20181213161512 82 28 1.0 7.0 0.00 0.00 0.00 74 1002.1
20181213154534 82 40 2.0 7.0 0.00 0.00 0.00 73 1002.8
20181213153029 81 43 3.0 12.0 0.00 0.00 0.00 73 1003.0
20181213143005 81 355 5.0 10.0 0.00 0.00 0.00 73 1004.4
20181213141537 81 342 4.0 7.0 0.00 0.00 0.00 76 1004.7
20181213140011 81 92 4.0 8.0 0.00 0.00 0.00 76 1004.9
20181213134510 80 360 5.0 11.0 0.00 0.00 0.00 77 1005.2
20181213133034 79 15 5.0 11.0 0.00 0.00 0.00 78 1005.6
20181213131518 78 10 4.0 11.0 0.00 0.00 0.00 78 1005.9
20181213124505 77 355 5.0 13.0 0.00 0.00 0.00 80 1006.5
20181213121505 77 54 5.0 11.0 0.00 0.00 0.00 81 1006.8
20181213114514 77 25 5.0 12.0 0.00 0.00 0.00 82 1007.1
20181213113002 76 30 5.0 11.0 0.00 0.00 0.00 85 1007.0
20181213111624 75 67 5.0 13.0 0.00 0.00 0.00 86 1007.4
20181213104505 75 85 4.0 11.0 0.00 0.00 0.00 86 1007.5
20181213103027 75 96 5.0 11.0 0.00 0.00 0.00 86 1007.5
20181213101515 75 82 5.0 11.0 0.00 0.00 0.00 85 1007.4
20181213094657 75 40 3.0 12.0 0.00 0.00 0.00 87 1007.4
20181213093027 75 73 6.0 12.0 0.00 0.00 0.00 87 1007.5
20181213091612 74 34 4.0 10.0 0.00 0.00 0.00 88 1007.4
20181213084520 74 26 5.0 10.0 0.00 0.00 0.00 88 1007.6
20181213081703 75 78 3.0 11.0 0.00 0.00 0.00 87 1007.9
20181213074703 75 28 3.0 11.0 0.00 0.00 0.00 87 1008.0
20181213073018 75 46 4.0 11.0 0.00 0.00 0.00 87 1008.3
20181213071512 75 40 3.0 6.0 0.00 0.00 0.00 88 1008.5
20181213064504 75 57 3.0 10.0 0.00 0.00 0.00 88 1008.9
20181213063019 75 42 4.0 9.0 0.00 0.00 0.00 87 1009.0
20181213061523 75 46 3.0 8.0 0.00 0.00 0.00 87 1009.4
20181213054529 75 60 5.0 11.0 0.00 0.00 0.00 85 1009.7
20181213053038 75 355 4.0 10.0 0.00 0.00 0.00 85 1009.8
20181213051503 75 83 6.0 11.0 0.00 0.00 0.00 86 1009.8
20181213044647 76 46 4.0 13.0 0.00 0.00 0.00 87 1010.2
20181213043019 76 70 2.0 11.0 0.00 0.00 0.00 87 1010.3
20181213041509 76 78 4.0 8.0 0.00 0.00 0.00 88 1010.5
20181213034545 76 105 3.0 8.0 0.00 0.00 0.00 87 1010.6